QPF
0.02 0.02 0.03 0.02 0.02 0.04 0.06 0.09 0.10 0.09 0.06 0.04 0.03 0.03 0.02 0.02 0.02 0.01 0.02 0.02 0.03 0.03 0.02 0.02 0.02 0.03 0.04 0.06 0.07 0.06 0.06 0.07 0.06 0.06 0.06 0.05 0.06 0.09
0.02 0.03 0.03 0.02 0.02 0.03 0.05 0.06 0.07 0.08 0.06 0.04 0.03 0.02 0.02 0.01 0.02 0.02 0.03 0.03 0.02 0.03 0.03 0.02 0.02 0.02 0.03 0.03 0.03 0.03 0.03 0.03 0.04 0.04 0.04 0.04 0.04 0.05
0.01 0.02 0.03 0.02 0.02 0.03 0.04 0.05 0.05 0.05 0.05 0.03 0.02 0.02 0.02 0.02 0.03 0.03 0.03 0.04 0.03 0.02 0.02 0.02 0.02 0.03 0.04 0.04 0.03 0.02 0.02 0.02 0.02 0.02 0.03 0.03 0.04 0.05
0.02 0.03 0.04 0.02 0.03 0.03 0.03 0.03 0.03 0.03 0.04 0.04 0.02 0.02 0.02 0.03 0.02 0.02 0.03 0.04 0.04 0.03 0.02 0.01 0.02 0.03 0.04 0.04 0.04 0.03 0.02 0.02 0.02 0.02 0.02 0.03 0.04 0.04
0.02 0.03 0.03 0.03 0.02 0.01 0.02 0.02 0.02 0.02 0.03 0.03 0.03 0.03 0.02 0.03 0.02 0.01 0.02 0.04 0.05 0.04 0.02 0.02 0.02 0.02 0.02 0.03 0.03 0.03 0.02 0.02 0.02 0.02 0.02 0.03 0.03 0.03
0.00 0.01 0.01 0.02 0.02 0.02 0.01 0.02 0.02 0.03 0.03 0.03 0.03 0.03 0.03 0.02 0.02 0.02 0.02 0.02 0.03 0.03 0.02 0.02 0.02 0.02 0.02 0.02 0.03 0.03 0.03 0.03 0.03 0.03 0.02 0.02 0.02 0.02
0.00 0.00 0.00 0.01 0.01 0.01 0.01 0.02 0.03 0.03 0.04 0.04 0.03 0.02 0.02 0.02 0.02 0.02 0.02 0.02 0.02 0.02 0.02 0.01 0.01 0.01 0.01 0.01 0.02 0.02 0.02 0.02 0.02 0.02 0.02 0.02 0.02 0.02
0.00 0.00 0.00 0.01 0.01 0.02 0.01 0.01 0.01 0.01 0.02 0.04 0.06 0.04 0.02 0.02 0.02 0.02 0.02 0.02 0.03 0.03 0.03 0.03 0.02 0.01 0.01 0.01 0.01 0.01 0.02 0.01 0.01 0.01 0.01 0.01 0.02 0.02
0.00 0.00 0.00 0.00 0.01 0.01 0.01 0.00 0.00 0.01 0.02 0.02 0.05 0.04 0.02 0.02 0.02 0.02 0.01 0.02 0.02 0.03 0.03 0.04 0.04 0.03 0.02 0.02 0.02 0.01 0.01 0.01 0.01 0.01 0.01 0.01 0.01 0.01
0.00 0.00 0.00 0.00 0.00 0.00 0.00 0.00 0.00 0.00 0.01 0.00 0.01 0.02 0.02 0.02 0.03 0.03 0.03 0.02 0.01 0.02 0.03 0.04 0.05 0.04 0.03 0.02 0.01 0.01 0.01 0.01 0.01 0.01 0.01 0.00 0.00 0.00
0.00 0.00 0.00 0.00 0.00 0.00 0.00 0.00 0.00 0.00 0.00 0.00 0.00 0.00 0.01 0.02 0.02 0.03 0.03 0.03 0.03 0.02 0.02 0.02 0.02 0.03 0.02 0.02 0.01 0.01 0.01 0.01 0.01 0.01 0.00 0.00 0.00 0.00
0.00 0.00 0.00 0.00 0.00 0.00 0.00 0.00 0.00 0.00 0.00 0.00 0.00 0.00 0.00 0.00 0.00 0.01 0.02 0.03 0.02 0.02 0.01 0.01 0.02 0.02 0.02 0.02 0.01 0.01 0.00 0.00 0.00 0.00 0.00 0.00 0.00 0.00
0.00 0.00 0.00 0.00 0.00 0.00 0.00 0.00 0.00 0.00 0.00 0.00 0.00 0.00 0.00 0.00 0.00 0.00 0.01 0.01 0.01 0.01 0.01 0.01 0.01 0.01 0.02 0.02 0.02 0.01 0.01 0.00 0.00 0.00 0.01 0.01 0.00 0.00
0.00 0.00 0.00 0.00 0.00 0.00 0.00 0.00 0.00 0.00 0.00 0.00 0.00 0.00 0.00 0.00 0.00 0.00 0.00 0.01 0.01 0.01 0.01 0.01 0.01 0.01 0.01 0.01 0.01 0.01 0.01 0.01 0.00 0.01 0.01 0.01 0.01 0.01
0.00 0.00 0.00 0.00 0.00 0.00 0.00 0.00 0.00 0.00 0.00 0.00 0.00 0.00 0.00 0.00 0.00 0.00 0.00 0.00 0.00 0.00 0.00 0.00 0.01 0.01 0.01 0.01 0.01 0.01 0.01 0.00 0.00 0.00 0.01 0.01 0.01 0.01
0.00 0.00 0.00 0.00 0.00 0.00 0.00 0.00 0.00 0.00 0.00 0.00 0.00 0.00 0.00 0.00 0.00 0.00 0.00 0.00 0.00 0.00 0.00 0.00 0.00 0.00 0.01 0.01 0.01 0.01 0.00 0.00 0.00 0.00 0.01 0.01 0.01 0.00
0.00 0.00 0.00 0.00 0.00 0.00 0.00 0.00 0.00 0.00 0.00 0.00 0.00 0.00 0.00 0.00 0.00 0.00 0.00 0.00 0.00 0.00 0.00 0.00 0.00 0.00 0.00 0.00 0.00 0.00 0.00 0.00 0.00 0.00 0.00 0.01 0.01 0.00
0.00 0.00 0.00 0.00 0.00 0.00 0.00 0.00 0.00 0.00 0.00 0.00 0.00 0.00 0.00 0.00 0.00 0.00 0.00 0.00 0.00 0.00 0.00 0.00 0.00 0.00 0.00 0.00 0.00 0.00 0.00 0.00 0.00 0.00 0.00 0.00 0.00 0.00
0.00 0.00 0.00 0.00 0.00 0.00 0.00 0.00 0.00 0.00 0.00 0.00 0.00 0.00 0.00 0.00 0.01 0.01 0.00 0.00 0.00 0.00 0.00 0.00 0.00 0.00 0.00 0.00 0.00 0.00 0.00 0.00 0.00 0.00 0.00 0.00 0.00 0.00
0.01 0.01 0.01 0.01 0.01 0.01 0.01 0.01 0.00 0.00 0.00 0.00 0.00 0.00 0.00 0.00 0.00 0.00 0.00 0.00 0.00 0.00 0.00 0.00 0.00 0.00 0.00 0.00 0.00 0.00 0.00 0.00 0.00 0.00 0.00 0.00 0.00 0.00
0.01 0.01 0.01 0.01 0.01 0.01 0.01 0.01 0.01 0.01 0.01 0.00 0.00 0.00 0.00 0.00 0.01 0.00 0.00 0.00 0.00 0.00 0.00 0.00 0.00 0.00 0.00 0.00 0.00 0.00 0.00 0.00 0.00 0.00 0.00 0.00 0.00 0.00
0.02 0.02 0.02 0.02 0.02 0.01 0.01 0.01 0.01 0.01 0.01 0.01 0.00 0.00 0.00 0.00 0.00 0.00 0.00 0.00 0.00 0.00 0.00 0.00 0.00 0.00 0.00 0.00 0.00 0.00 0.00 0.00 0.00 0.00 0.00 0.00 0.00 0.00
0.02 0.03 0.03 0.03 0.03 0.02 0.02 0.01 0.01 0.01 0.00 0.00 0.00 0.00 0.00 0.00 0.00 0.00 0.00 0.00 0.00 0.00 0.00 0.00 0.00 0.00 0.00 0.00 0.00 0.00 0.00 0.00 0.00 0.00 0.00 0.00 0.00 0.00
MSLP
1015.01 1015.01 1015.02 1015.06 1015.09 1015.12 1015.12 1015.10 1015.05 1015.00 1014.94 1014.88 1014.85 1014.85 1014.88 1014.92 1014.99 1015.06 1015.14 1015.21 1015.28 1015.34 1015.38 1015.42 1015.44 1015.44 1015.42 1015.38 1015.32 1015.25 1015.18 1015.12 1015.08 1015.07 1015.10 1015.17 1015.27 1015.39
1015.04 1015.03 1015.04 1015.05 1015.07 1015.08 1015.08 1015.07 1015.05 1015.03 1015.02 1015.01 1015.02 1015.05 1015.09 1015.14 1015.20 1015.25 1015.30 1015.34 1015.37 1015.40 1015.42 1015.44 1015.45 1015.45 1015.44 1015.41 1015.37 1015.31 1015.24 1015.17 1015.11 1015.07 1015.06 1015.07 1015.10 1015.16
1015.04 1015.04 1015.03 1015.03 1015.04 1015.05 1015.05 1015.06 1015.06 1015.07 1015.08 1015.11 1015.14 1015.19 1015.23 1015.28 1015.32 1015.35 1015.36 1015.37 1015.37 1015.37 1015.37 1015.37 1015.38 1015.39 1015.39 1015.39 1015.37 1015.33 1015.28 1015.23 1015.16 1015.10 1015.05 1015.02 1014.99 1014.99
1015.02 1015.02 1015.02 1015.02 1015.02 1015.04 1015.05 1015.07 1015.09 1015.11 1015.15 1015.19 1015.23 1015.27 1015.31 1015.34 1015.36 1015.36 1015.34 1015.32 1015.29 1015.26 1015.24 1015.23 1015.24 1015.26 1015.28 1015.30 1015.31 1015.31 1015.29 1015.25 1015.19 1015.12 1015.05 1014.97 1014.90 1014.84
1014.97 1014.97 1014.98 1014.99 1015.01 1015.03 1015.06 1015.09 1015.13 1015.16 1015.20 1015.24 1015.28 1015.31 1015.34 1015.34 1015.33 1015.30 1015.26 1015.21 1015.15 1015.10 1015.06 1015.04 1015.04 1015.06 1015.10 1015.15 1015.19 1015.22 1015.23 1015.21 1015.17 1015.10 1015.01 1014.90 1014.79 1014.68
1014.84 1014.86 1014.88 1014.91 1014.94 1014.99 1015.04 1015.09 1015.14 1015.18 1015.22 1015.25 1015.28 1015.30 1015.30 1015.29 1015.26 1015.21 1015.14 1015.07 1014.99 1014.92 1014.86 1014.83 1014.82 1014.84 1014.89 1014.94 1015.01 1015.06 1015.09 1015.10 1015.07 1015.01 1014.91 1014.78 1014.63 1014.48
1014.60 1014.63 1014.67 1014.72 1014.79 1014.87 1014.94 1015.02 1015.08 1015.13 1015.17 1015.20 1015.22 1015.22 1015.21 1015.18 1015.14 1015.08 1015.01 1014.93 1014.84 1014.76 1014.69 1014.64 1014.62 1014.63 1014.67 1014.73 1014.79 1014.86 1014.91 1014.93 1014.91 1014.85 1014.74 1014.59 1014.42 1014.24
1014.19 1014.24 1014.31 1014.40 1014.51 1014.62 1014.73 1014.83 1014.91 1014.98 1015.02 1015.05 1015.06 1015.06 1015.05 1015.03 1014.99 1014.95 1014.88 1014.81 1014.73 1014.65 1014.57 1014.51 1014.47 1014.46 1014.49 1014.53 1014.59 1014.65 1014.70 1014.72 1014.71 1014.64 1014.53 1014.37 1014.17 1013.96
1013.61 1013.69 1013.79 1013.92 1014.07 1014.22 1014.37 1014.50 1014.60 1014.69 1014.75 1014.78 1014.81 1014.82 1014.83 1014.83 1014.82 1014.80 1014.77 1014.72 1014.66 1014.59 1014.52 1014.45 1014.40 1014.37 1014.37 1014.39 1014.42 1014.47 1014.51 1014.52 1014.49 1014.42 1014.30 1014.13 1013.92 1013.68
1012.87 1012.97 1013.11 1013.28 1013.47 1013.66 1013.84 1014.00 1014.14 1014.25 1014.33 1014.40 1014.44 1014.49 1014.53 1014.57 1014.61 1014.64 1014.66 1014.66 1014.63 1014.59 1014.53 1014.46 1014.40 1014.35 1014.32 1014.31 1014.32 1014.33 1014.35 1014.34 1014.30 1014.22 1014.08 1013.90 1013.68 1013.43
1012.02 1012.15 1012.31 1012.51 1012.73 1012.96 1013.17 1013.37 1013.53 1013.67 1013.78 1013.88 1013.96 1014.05 1014.14 1014.24 1014.34 1014.43 1014.52 1014.57 1014.60 1014.60 1014.57 1014.51 1014.45 1014.38 1014.33 1014.29 1014.26 1014.25 1014.23 1014.21 1014.15 1014.05 1013.91 1013.72 1013.49 1013.24
1011.14 1011.27 1011.45 1011.66 1011.90 1012.15 1012.38 1012.60 1012.80 1012.96 1013.11 1013.24 1013.37 1013.50 1013.65 1013.81 1013.98 1014.15 1014.31 1014.43 1014.52 1014.57 1014.57 1014.54 1014.49 1014.42 1014.35 1014.29 1014.24 1014.20 1014.16 1014.11 1014.03 1013.93 1013.78 1013.60 1013.38 1013.13
1010.29 1010.40 1010.56 1010.77 1011.01 1011.26 1011.50 1011.73 1011.95 1012.13 1012.31 1012.48 1012.65 1012.84 1013.05 1013.28 1013.52 1013.76 1013.99 1014.18 1014.34 1014.44 1014.50 1014.50 1014.47 1014.41 1014.34 1014.28 1014.21 1014.15 1014.10 1014.04 1013.95 1013.85 1013.71 1013.53 1013.33 1013.11
1009.49 1009.56 1009.69 1009.86 1010.08 1010.31 1010.54 1010.77 1010.99 1011.20 1011.40 1011.60 1011.82 1012.06 1012.32 1012.61 1012.92 1013.23 1013.53 1013.80 1014.02 1014.18 1014.29 1014.35 1014.35 1014.32 1014.27 1014.21 1014.15 1014.09 1014.04 1013.97 1013.89 1013.79 1013.67 1013.52 1013.35 1013.16
1008.77 1008.77 1008.83 1008.95 1009.11 1009.30 1009.51 1009.73 1009.94 1010.16 1010.38 1010.62 1010.87 1011.16 1011.48 1011.82 1012.19 1012.57 1012.93 1013.26 1013.55 1013.78 1013.95 1014.06 1014.11 1014.13 1014.11 1014.08 1014.04 1014.00 1013.95 1013.90 1013.84 1013.76 1013.66 1013.54 1013.41 1013.27
1008.08 1007.99 1007.97 1008.01 1008.11 1008.25 1008.42 1008.61 1008.82 1009.04 1009.27 1009.54 1009.83 1010.16 1010.52 1010.92 1011.34 1011.77 1012.20 1012.59 1012.94 1013.24 1013.47 1013.65 1013.77 1013.84 1013.88 1013.89 1013.89 1013.87 1013.85 1013.83 1013.79 1013.74 1013.67 1013.59 1013.50 1013.41
1007.40 1007.21 1007.09 1007.05 1007.07 1007.15 1007.27 1007.44 1007.63 1007.85 1008.10 1008.39 1008.72 1009.09 1009.50 1009.95 1010.42 1010.90 1011.37 1011.82 1012.24 1012.60 1012.90 1013.15 1013.33 1013.48 1013.57 1013.64 1013.69 1013.72 1013.74 1013.75 1013.74 1013.72 1013.69 1013.65 1013.60 1013.56
1006.70 1006.40 1006.19 1006.07 1006.01 1006.03 1006.11 1006.24 1006.42 1006.65 1006.91 1007.23 1007.59 1008.00 1008.45 1008.94 1009.46 1009.99 1010.51 1011.02 1011.49 1011.91 1012.28 1012.60 1012.86 1013.07 1013.24 1013.38 1013.48 1013.56 1013.62 1013.66 1013.68 1013.70 1013.70 1013.69 1013.68 1013.67
1005.97 1005.60 1005.31 1005.10 1004.98 1004.94 1004.98 1005.08 1005.25 1005.48 1005.76 1006.10 1006.49 1006.94 1007.43 1007.96 1008.52 1009.09 1009.66 1010.21 1010.74 1011.23 1011.66 1012.05 1012.38 1012.67 1012.91 1013.10 1013.26 1013.39 1013.49 1013.56 1013.62 1013.65 1013.68 1013.69 1013.70 1013.71
1005.26 1004.82 1004.47 1004.21 1004.03 1003.94 1003.94 1004.02 1004.17 1004.39 1004.68 1005.04 1005.46 1005.94 1006.46 1007.03 1007.62 1008.23 1008.84 1009.44 1010.02 1010.56 1011.06 1011.51 1011.91 1012.26 1012.56 1012.82 1013.03 1013.20 1013.34 1013.44 1013.52 1013.57 1013.61 1013.63 1013.64 1013.66
1004.60 1004.13 1003.74 1003.43 1003.21 1003.08 1003.04 1003.09 1003.22 1003.44 1003.73 1004.09 1004.53 1005.02 1005.57 1006.16 1006.78 1007.42 1008.07 1008.71 1009.33 1009.92 1010.48 1010.99 1011.44 1011.85 1012.21 1012.52 1012.77 1012.98 1013.15 1013.28 1013.37 1013.43 1013.46 1013.48 1013.49 1013.49
1004.05 1003.56 1003.14 1002.80 1002.55 1002.38 1002.31 1002.32 1002.43 1002.62 1002.90 1003.26 1003.69 1004.19 1004.75 1005.35 1006.00 1006.66 1007.34 1008.01 1008.67 1009.30 1009.90 1010.45 1010.96 1011.42 1011.82 1012.17 1012.46 1012.70 1012.90 1013.04 1013.14 1013.20 1013.23 1013.24 1013.23 1013.21
1003.59 1003.11 1002.68 1002.31 1002.03 1001.83 1001.71 1001.69 1001.76 1001.93 1002.18 1002.52 1002.93 1003.42 1003.98 1004.59 1005.24 1005.92 1006.62 1007.32 1008.01 1008.67 1009.31 1009.90 1010.45 1010.95 1011.39 1011.77 1012.09 1012.36 1012.57 1012.73 1012.83 1012.90 1012.93 1012.92 1012.89 1012.85
Thickness
5677 5676 5677 5678 5680 5681 5683 5684 5683 5683 5686 5691 5695 5699 5702 5704 5706 5710 5712 5713 5715 5717 5719 5720 5722 5723 5724 5725 5725 5726 5727 5728 5728 5729 5729 5729 5730 5730
5675 5676 5676 5679 5679 5680 5681 5683 5684 5684 5685 5690 5692 5695 5698 5701 5702 5706 5708 5709 5711 5713 5714 5716 5717 5719 5720 5720 5721 5721 5722 5723 5724 5725 5725 5725 5726 5726
5678 5677 5677 5677 5678 5679 5680 5681 5682 5684 5683 5686 5689 5692 5694 5697 5699 5701 5704 5707 5708 5708 5709 5711 5712 5713 5714 5715 5716 5716 5717 5717 5718 5719 5720 5720 5721 5721
5678 5677 5677 5677 5677 5679 5679 5680 5681 5683 5683 5682 5685 5688 5690 5693 5695 5697 5700 5703 5704 5703 5704 5705 5706 5708 5708 5709 5710 5710 5711 5712 5713 5714 5714 5715 5716 5716
5679 5677 5677 5677 5676 5678 5677 5679 5680 5681 5682 5682 5683 5684 5686 5688 5689 5691 5695 5696 5699 5698 5698 5699 5700 5701 5703 5703 5704 5705 5705 5706 5707 5708 5708 5709 5710 5710
5680 5678 5678 5677 5677 5677 5677 5677 5678 5678 5679 5679 5680 5680 5681 5683 5685 5686 5688 5690 5692 5694 5694 5694 5695 5695 5696 5697 5698 5699 5700 5700 5701 5701 5702 5703 5703 5704
5680 5679 5678 5676 5674 5674 5675 5676 5675 5676 5676 5676 5677 5677 5678 5678 5680 5682 5682 5684 5686 5688 5689 5691 5692 5693 5693 5692 5692 5693 5693 5694 5694 5695 5696 5696 5697 5697
5680 5679 5678 5675 5672 5670 5669 5670 5671 5673 5675 5674 5674 5674 5676 5677 5677 5677 5678 5679 5680 5682 5683 5685 5687 5687 5688 5689 5685 5685 5686 5686 5687 5688 5688 5689 5690 5690
5680 5679 5678 5676 5672 5673 5669 5666 5667 5667 5668 5672 5673 5673 5673 5674 5673 5673 5674 5675 5676 5678 5678 5678 5681 5680 5681 5679 5678 5678 5678 5678 5679 5680 5681 5682 5682 5683
5678 5678 5677 5676 5673 5672 5671 5669 5669 5668 5667 5667 5670 5671 5671 5670 5670 5671 5671 5670 5670 5670 5671 5672 5674 5674 5674 5672 5669 5670 5670 5670 5671 5672 5673 5674 5675 5676
5677 5677 5676 5675 5671 5667 5667 5667 5666 5666 5663 5662 5662 5663 5662 5662 5663 5664 5664 5663 5664 5666 5666 5666 5667 5668 5668 5667 5664 5663 5663 5663 5664 5664 5665 5666 5667 5668
5675 5675 5670 5670 5668 5663 5664 5665 5663 5664 5663 5660 5658 5657 5658 5658 5656 5659 5660 5660 5661 5661 5660 5660 5661 5661 5660 5661 5660 5659 5658 5657 5657 5657 5657 5658 5659 5662
5672 5671 5672 5666 5662 5660 5660 5663 5662 5661 5661 5660 5659 5658 5657 5657 5656 5655 5656 5656 5656 5656 5656 5654 5654 5655 5655 5654 5654 5654 5654 5653 5652 5652 5651 5650 5650 5651
5668 5669 5669 5663 5659 5656 5655 5656 5654 5652 5656 5656 5655 5655 5654 5654 5653 5652 5651 5650 5650 5650 5649 5648 5648 5648 5648 5648 5647 5647 5647 5646 5646 5646 5645 5642 5642 5640
5663 5663 5661 5657 5654 5651 5650 5649 5647 5648 5650 5651 5652 5652 5652 5650 5648 5646 5644 5643 5642 5640 5640 5641 5641 5642 5641 5641 5641 5640 5639 5639 5637 5637 5637 5636 5636 5635
5651 5652 5649 5648 5646 5648 5647 5644 5645 5648 5648 5648 5648 5648 5647 5644 5642 5641 5638 5636 5635 5633 5632 5632 5632 5633 5633 5632 5632 5632 5632 5630 5629 5628 5627 5627 5626 5625
5644 5644 5644 5644 5643 5644 5645 5645 5643 5643 5642 5643 5643 5642 5640 5639 5637 5636 5635 5634 5632 5630 5626 5624 5624 5623 5622 5623 5623 5624 5624 5622 5621 5618 5617 5617 5617 5617
5629 5636 5639 5640 5641 5642 5641 5641 5640 5640 5639 5638 5637 5637 5635 5633 5632 5630 5629 5629 5628 5626 5624 5620 5618 5616 5615 5614 5610 5615 5615 5614 5612 5610 5609 5609 5609 5608
5619 5628 5632 5635 5636 5637 5637 5637 5636 5636 5635 5633 5633 5632 5630 5629 5627 5625 5623 5623 5622 5620 5618 5615 5613 5613 5614 5615 5607 5600 5604 5604 5602 5602 5601 5600 5600 5599
5613 5619 5624 5627 5629 5631 5631 5631 5631 5630 5629 5628 5627 5626 5625 5623 5622 5620 5619 5617 5615 5612 5609 5607 5606 5606 5607 5608 5605 5597 5590 5593 5593 5593 5593 5592 5591 5588
5603 5609 5614 5618 5620 5623 5624 5624 5624 5624 5623 5622 5622 5620 5619 5618 5616 5615 5613 5608 5607 5606 5604 5601 5597 5592 5593 5592 5593 5592 5587 5580 5580 5580 5581 5581 5583 5584
5591 5597 5602 5606 5609 5612 5614 5614 5615 5616 5616 5616 5616 5614 5613 5612 5611 5608 5607 5603 5601 5600 5597 5593 5586 5584 5585 5586 5587 5585 5582 5577 5572 5568 5566 5566 5569 5573
5577 5583 5588 5593 5596 5599 5602 5604 5606 5608 5609 5609 5609 5608 5607 5605 5604 5602 5600 5597 5595 5592 5588 5584 5580 5578 5577 5577 5576 5575 5573 5570 5568 5566 5564 5560 5556 5554